Location: *
(51.1248°S, 108.4023°W)
Time: 19:16:39
(UTC+00:00)

Cosmos 1937 Rocket - Pass Details

Date: 19 October 2021
Orbit: 746 x 781 km, 74.0° (Epoch: 03 December)

Event Time Altitude Azimuth Distance (km) Brightness Sun altitude
Rises 11:04:16 0° 2° (N) 3,266 6.5 -9.1°
Reaches altitude 10° 11:06:46 10° 10° (N) 2,347 5.8 -8.8°
Maximum altitude 11:11:40 38° 76° (ENE) 1,191 5.0 -8.1°
Drops below altitude 10° 11:16:38 10° 143° (SE) 2,369 7.2 -7.4°
Sets 11:19:10 0° 150° (SSE) 3,301 7.8 -7.0°
